Theta_e
318 318 318 318 318 319 319 319 319 319 320 320 320 320 320 320 320 320 320 320 320 320 320 321 321 320 320 321 321 321 318 310 311 310 304 305 314 324 328 332 330 334 326 304 305 304 300 300 304 302 301 302 301 301 301 304 298 298 293 289 287 288 290 291 293 292 296 295 298 299 298 297 296 299 301 302 299 304 307 306 310 317 317 322 324 331 335 337
319 318 318 318 319 319 319 319 319 319 320 320 320 320 320 320 320 320 320 320 320 320 320 320 320 320 320 321 321 320 315 312 310 309 309 319 330 329 332 334 330 329 320 306 302 299 300 303 302 300 300 299 300 301 302 300 301 294 289 289 289 287 292 294 293 294 296 297 297 297 298 297 298 299 299 300 297 300 305 306 313 315 316 317 330 333 335 336
319 319 318 318 318 319 319 319 319 319 319 319 320 320 320 320 320 320 320 320 320 320 320 320 320 320 320 321 321 320 314 312 313 311 317 328 330 332 333 334 333 330 309 305 301 300 301 301 301 301 298 299 297 299 300 299 300 294 294 289 288 291 294 294 296 298 297 297 297 297 298 297 297 298 300 299 297 297 302 302 307 311 313 313 322 331 334 334
319 319 319 318 318 319 319 319 319 319 319 319 319 320 320 320 320 320 320 319 320 320 320 320 320 320 320 320 321 313 312 313 307 312 316 330 332 333 333 335 334 321 305 304 304 302 302 302 301 302 300 299 297 296 297 297 296 294 294 289 292 295 294 297 297 297 298 296 297 297 297 296 298 297 299 297 297 296 296 303 306 308 312 314 327 330 333 333
319 319 319 318 318 318 318 319 319 319 319 319 319 319 320 320 320 319 319 319 319 319 320 320 320 320 320 320 319 314 311 300 305 311 317 333 335 334 333 336 334 310 307 303 304 302 302 302 302 299 299 297 293 294 295 296 297 296 295 295 297 295 294 299 298 298 297 297 295 295 295 298 299 299 297 297 296 297 298 298 305 309 312 313 326 331 332 332
319 319 319 319 318 318 318 318 319 319 319 319 319 319 319 319 320 319 320 319 319 319 319 320 320 320 321 320 312 312 308 295 308 310 339 337 336 335 336 337 331 304 304 303 302 302 303 303 302 299 296 295 296 295 296 296 299 293 293 293 294 296 296 298 299 298 297 296 296 296 297 298 298 298 297 297 298 298 301 301 302 308 310 313 327 331 331 331
319 319 319 319 319 319 319 319 318 319 319 319 318 319 319 319 320 320 319 320 320 320 320 320 320 320 321 318 307 307 305 305 309 316 339 339 338 336 339 336 324 305 303 303 302 301 300 301 302 299 294 293 293 294 295 296 297 296 293 292 297 296 297 300 299 299 296 294 296 296 298 298 296 297 297 296 299 302 303 301 301 303 325 330 329 331 331 331
320 319 320 319 319 319 319 318 319 319 320 318 318 318 319 319 319 319 320 320 320 320 320 320 320 321 320 312 309 303 305 308 314 329 341 338 335 335 321 307 306 304 305 301 300 300 303 302 302 300 294 297 298 297 296 297 298 295 293 294 298 298 299 300 299 299 298 297 298 297 296 297 296 297 298 298 301 300 300 299 299 314 327 327 328 330 330 330
320 319 319 319 318 318 318 318 319 319 318 319 319 318 318 319 318 318 320 320 320 319 320 320 320 322 320 312 306 305 307 312 318 327 327 324 321 313 312 311 305 306 302 300 303 302 305 300 303 301 298 297 298 298 296 297 294 294 296 297 298 300 300 301 299 299 298 298 297 297 296 296 297 298 297 300 300 300 301 300 305 321 324 326 327 329 329 330
319 319 319 319 318 318 318 318 318 318 318 318 318 318 318 318 317 318 320 321 320 320 320 321 321 321 313 306 302 298 309 321 325 325 316 315 309 307 305 306 304 303 303 303 304 305 305 302 303 303 302 300 299 299 298 297 296 296 298 299 298 299 298 300 297 298 298 297 297 298 296 297 297 299 297 300 300 301 301 301 315 321 322 325 326 328 329 329
319 319 319 319 318 318 318 318 318 318 318 318 318 318 318 317 317 317 319 321 321 321 321 321 322 318 311 306 303 301 312 315 318 313 313 309 307 306 304 305 304 303 302 302 304 305 305 302 304 303 302 298 300 299 299 299 299 299 299 298 299 298 299 298 298 298 297 301 296 296 297 296 296 299 298 300 301 301 300 305 322 323 324 328 329 329 330 331
319 319 319 319 318 318 318 318 318 318 317 316 317 316 316 316 316 317 321 322 322 321 321 321 321 315 314 305 300 308 315 315 316 311 311 308 306 305 304 307 305 304 304 302 302 304 306 306 304 304 299 302 298 299 299 299 301 299 299 296 297 297 298 301 299 300 299 300 297 295 295 295 293 297 298 301 301 302 309 309 314 323 327 328 330 330 331 332
318 318 318 318 318 318 318 318 318 317 316 315 315 315 316 316 317 319 322 322 321 321 321 322 319 315 312 305 310 312 315 315 312 309 308 305 304 303 304 305 307 303 304 305 305 304 305 304 304 301 301 302 298 298 302 302 299 300 297 296 295 294 296 302 300 301 300 300 296 298 288 289 295 297 300 300 301 315 319 318 321 324 327 329 330 331 331 332
318 318 318 318 317 317 318 317 317 316 315 315 314 315 315 316 317 321 323 321 322 322 322 321 315 315 311 306 314 321 313 310 310 308 307 309 305 305 303 306 305 305 306 306 305 303 305 303 304 303 302 301 300 301 302 298 296 297 296 291 288 289 292 300 298 300 301 301 297 297 292 289 295 297 300 302 314 320 320 322 323 325 327 328 328 328 329 331
318 318 318 317 317 317 317 317 316 315 314 315 314 314 315 317 320 323 323 322 321 322 321 319 311 314 306 310 317 326 328 308 306 306 308 306 305 305 305 303 305 305 304 306 306 305 304 303 304 302 299 303 302 299 296 294 291 291 292 289 288 289 293 298 299 298 297 299 298 297 289 293 295 299 301 309 319 322 319 321 322 323 325 326 328 328 328 329
318 317 317 317 316 317 317 316 315 313 313 315 314 314 316 320 322 323 322 322 321 321 317 313 311 308 301 303 316 332 310 306 308 307 306 307 306 308 307 304 305 306 307 306 306 307 310 305 302 300 302 301 295 292 293 292 289 290 292 290 290 289 291 292 299 297 299 298 297 298 293 292 297 301 306 314 317 318 318 319 322 324 325 326 326 327 327 328
317 317 316 316 316 316 316 315 314 313 312 314 315 316 319 321 322 322 321 320 319 317 316 311 312 315 306 310 316 308 306 308 309 308 308 308 308 308 307 306 307 305 305 306 307 306 305 305 303 302 297 296 292 293 292 286 288 287 290 292 290 291 291 290 296 297 298 297 296 296 294 295 299 305 310 313 315 318 319 320 322 323 324 324 325 326 326 327
317 316 316 316 316 316 315 315 315 312 311 313 313 316 317 319 320 318 315 315 317 315 312 315 310 307 304 309 307 308 309 308 311 310 308 308 309 308 307 307 306 305 303 304 306 303 304 301 298 297 293 291 295 289 289 287 291 290 291 289 290 289 291 291 290 297 297 298 299 299 300 301 303 308 312 314 318 319 320 321 321 320 320 321 323 323 324 325
316 316 316 316 315 315 315 315 314 311 310 312 314 315 314 315 313 313 312 314 306 304 302 306 305 298 296 306 308 310 310 311 311 311 309 309 310 308 309 308 306 306 301 300 301 303 299 296 294 292 292 291 292 293 293 295 293 292 292 290 290 289 289 291 293 295 296 299 301 301 298 301 305 309 316 320 322 321 321 320 318 316 317 318 320 321 323 324
316 316 316 315 315 314 313 313 312 311 310 310 310 309 304 302 298 301 302 308 304 304 306 306 308 310 309 308 309 312 314 312 310 309 309 311 310 307 306 307 303 303 300 299 297 299 300 292 292 292 294 296 296 295 296 297 295 294 292 292 290 290 290 292 293 295 296 298 298 303 305 306 308 311 315 320 320 316 314 313 313 313 314 316 318 320 321 322
315 316 316 316 315 313 312 311 311 310 309 306 303 301 299 299 295 294 300 303 302 306 306 306 309 309 307 309 309 309 308 308 308 307 310 318 307 307 303 303 297 301 295 299 300 300 297 291 293 295 296 297 297 296 295 295 295 294 293 292 289 290 290 294 295 296 296 296 296 304 308 310 312 315 316 315 313 311 311 311 311 312 313 315 316 318 319 321
315 315 315 315 314 313 311 311 310 309 310 306 309 304 302 305 306 305 303 298 303 304 305 305 308 307 309 310 312 309 307 304 305 306 309 312 308 304 301 299 298 298 295 297 294 292 291 294 295 297 298 297 295 296 295 294 294 293 292 289 290 289 290 293 293 295 298 303 297 304 306 309 313 312 313 312 312 312 313 312 312 312 312 313 315 316 317 318
314 314 315 314 313 312 310 309 308 308 308 307 308 304 308 310 308 307 307 299 299 305 306 306 307 305 307 308 307 310 305 302 302 304 306 308 304 304 300 300 297 296 295 296 296 291 291 290 295 297 295 296 293 292 293 292 291 290 289 289 288 289 290 287 291 293 295 294 297 301 302 301 311 312 312 313 313 312 312 311 310 311 310 311 312 314 315 315
313 314 315 314 313 311 310 307 307 308 309 309 306 309 312 308 307 310 306 298 298 303 306 307 307 306 304 306 307 306 303 303 302 303 314 307 302 303 302 299 298 296 295 296 294 292 292 297 298 296 293 297 296 292 291 291 293 291 289 289 287 289 290 290 290 291 294 301 302 301 298 299 304 308 309 312 313 310 308 308 308 309 310 311 312 313 314 314
313 314 314 314 313 310 308 308 307 307 309 305 306 311 310 310 311 308 305 298 299 301 310 305 308 305 306 310 308 307 303 302 302 305 312 307 302 302 301 300 299 294 292 295 293 293 292 295 296 296 293 293 296 294 292 290 292 289 290 291 292 291 290 289 289 289 285 291 293 290 283 290 298 309 308 311 308 304 305 303 304 305 307 308 307 307 308 309
313 313 313 313 311 309 309 309 305 309 308 308 310 312 311 311 309 309 300 293 293 296 303 301 308 304 309 305 304 302 302 300 302 303 308 307 308 303 301 298 298 296 295 293 295 294 295 297 295 297 294 291 291 292 293 293 289 288 291 292 292 291 290 290 289 288 283 284 291 294 286 284 294 304 309 308 304 301 302 302 302 303 304 304 304 303 302 303
313 312 312 311 310 309 308 303 306 308 305 307 311 312 314 314 314 314 306 286 288 301 301 305 304 302 307 305 303 303 292 294 302 307 307 310 308 305 300 292 297 299 300 296 291 291 296 296 295 293 290 290 289 291 294 291 287 288 294 292 292 291 290 289 290 289 284 289 291 288 291 287 289 298 309 307 302 299 299 300 301 302 302 302 303 303 303 303
312 312 312 311 309 308 304 307 308 307 308 312 314 314 315 315 314 310 293 282 282 300 299 299 304 309 307 304 303 301 300 301 297 303 305 306 307 301 300 295 296 295 296 293 289 291 296 295 294 293 290 290 292 293 295 293 291 291 293 293 292 291 289 289 289 286 286 289 285 285 291 287 284 295 310 307 301 298 297 298 300 301 302 302 303 303 303 304
312 311 311 310 309 307 303 307 308 307 311 313 314 314 318 314 311 301 284 282 297 296 310 301 310 305 300 301 300 295 300 300 297 300 301 306 304 304 299 298 296 294 294 296 291 292 295 297 297 294 290 291 293 294 293 293 291 292 292 293 291 290 291 291 286 288 285 284 283 285 288 284 284 296 303 303 300 297 296 298 299 300 301 301 302 303 304 304
311 311 310 309 307 305 303 307 306 311 313 313 314 316 318 310 301 293 284 281 301 294 303 302 301 297 297 296 294 296 300 298 299 299 300 301 302 303 302 299 295 295 296 293 291 294 296 300 300 295 296 295 294 294 294 294 295 294 291 291 290 287 286 288 285 284 284 282 279 285 288 288 285 292 300 298 300 300 297 298 299 299 300 301 301 302 302 302
310 310 309 308 302 306 304 304 310 311 312 313 316 314 311 301 288 280 279 288 298 299 300 298 297 298 295 295 294 294 298 295 297 298 299 298 301 296 296 299 295 291 288 290 294 293 294 297 297 296 302 297 295 295 296 293 293 291 288 287 288 287 284 282 280 282 281 277 279 284 287 291 283 285 297 301 299 301 299 297 297 298 298 299 300 301 302 303
309 308 308 306 306 306 305 306 312 312 313 314 312 305 301 295 293 286 283 302 292 295 294 293 296 296 295 296 294 292 294 295 295 295 295 292 290 292 291 289 288 288 283 285 290 290 294 295 295 295 304 297 293 290 291 292 293 292 286 287 284 279 277 279 275 281 279 278 287 285 286 284 285 284 293 299 298 299 299 299 298 298 298 298 298 299 300 301
308 307 307 306 307 303 305 309 311 312 312 311 305 301 293 282 281 283 292 294 291 296 295 297 295 296 296 294 293 294 295 294 296 295 295 294 293 292 294 295 291 294 287 287 286 284 287 290 291 294 294 298 293 288 288 289 289 291 285 281 278 275 271 271 270 277 277 281 285 286 286 283 284 290 295 296 298 299 299 299 299 298 298 298 298 298 299 299
307 307 304 306 306 309 311 312 312 311 312 307 303 302 291 284 282 303 293 292 295 295 295 294 295 295 294 293 295 295 292 296 297 297 294 293 289 291 292 293 293 292 287 286 289 282 283 284 290 291 291 294 294 291 290 290 290 289 286 288 284 276 280 275 275 276 278 280 283 284 284 278 286 289 296 297 298 299 299 299 298 298 297 297 296 296 296 297
307 305 304 305 306 309 309 310 311 311 306 302 295 291 284 282 283 287 288 290 293 294 295 295 296 294 294 294 295 299 297 293 297 294 292 292 290 288 290 292 294 291 290 289 288 285 288 284 289 292 295 296 295 298 295 290 287 285 287 287 286 286 282 282 276 278 278 279 279 281 280 283 287 295 297 297 297 298 299 298 299 298 298 297 296 296 296 296
305 305 306 302 307 308 309 312 310 309 306 297 288 284 283 286 289 290 293 295 296 294 294 292 292 294 290 289 293 296 300 296 296 292 292 293 291 291 291 291 293 292 290 287 284 285 285 284 291 292 295 295 296 297 295 294 284 288 289 286 289 289 287 279 281 281 281 276 277 274 283 287 290 294 294 295 296 296 296 297 297 296 297 296 295 295 295 296
302 303 302 303 306 310 310 309 312 307 302 294 287 284 285 293 294 293 300 295 295 294 291 289 287 292 288 290 289 291 296 297 296 293 289 292 292 293 293 293 294 294 292 289 288 288 285 284 288 290 293 295 296 295 295 293 290 284 284 284 290 291 288 284 280 274 272 276 276 279 281 282 284 279 292 293 294 294 295 295 296 296 295 295 295 295 295 295
299 300 305 305 307 310 310 311 311 303 297 293 288 299 295 296 298 296 296 295 295 294 289 287 289 295 289 289 289 292 294 293 291 291 290 292 290 295 292 293 296 295 294 292 292 290 289 284 286 291 292 293 293 293 292 293 294 292 289 292 289 280 284 280 278 275 273 273 273 277 278 280 284 284 289 291 292 293 294 295 294 294 294 294 295 295 295 295
297 297 296 305 308 309 311 310 306 299 295 292 283 291 294 298 300 295 295 295 295 294 292 290 290 292 290 288 289 292 293 290 292 291 290 291 289 295 294 293 294 293 293 292 290 288 290 284 283 289 292 293 291 289 284 286 291 291 292 290 290 286 281 282 283 280 279 273 272 275 278 280 287 287 291 293 293 294 294 293 294 294 295 295 294 295 295 295
298 295 292 300 306 311 313 308 300 295 291 287 284 291 295 296 297 297 296 297 295 294 291 291 294 291 292 290 291 292 291 293 290 291 291 291 292 297 295 297 293 294 292 294 291 291 288 288 278 285 289 291 286 287 286 284 285 286 285 283 284 285 287 286 285 283 281 271 271 272 274 277 281 289 293 295 295 295 295 294 294 294 295 294 294 294 294 294
297 295 295 301 307 311 310 302 295 292 291 290 293 295 296 297 297 297 296 297 297 297 294 293 291 289 289 290 291 293 292 291 291 290 292 292 292 288 294 295 294 294 294 293 293 289 284 287 282 282 287 284 289 290 290 288 288 287 285 284 284 283 284 282 280 282 281 282 278 272 277 280 285 295 294 295 296 296 296 295 294 294 294 294 294 294 294 293
294 291 294 305 309 310 301 292 290 294 293 292 293 297 297 308 294 293 295 297 297 295 297 294 293 292 289 291 289 292 291 290 290 291 290 290 294 293 295 294 294 292 293 288 289 291 290 284 285 283 284 288 290 292 291 292 290 289 288 287 286 283 280 278 275 276 280 279 281 278 276 278 287 291 293 295 295 296 296 295 294 294 293 293 294 294 294 293
295 295 306 307 307 307 295 285 289 290 294 293 298 299 299 298 297 295 295 296 296 296 296 295 294 294 292 294 293 292 292 292 291 290 289 292 292 295 294 293 292 292 290 289 293 292 306 285 282 283 283 285 287 289 290 291 291 289 289 287 286 287 285 282 277 278 280 279 279 277 275 277 284 293 292 292 294 293 293 293 293 292 293 293 293 293 292 293
295 294 298 304 306 303 296 288 286 284 289 297 296 298 300 299 298 297 295 294 295 295 294 294 295 296 295 295 294 294 294 289 291 293 292 292 294 295 293 292 293 293 295 293 291 293 286 284 284 280 277 281 280 281 285 288 289 285 286 286 287 287 286 285 283 282 281 279 282 277 278 276 288 293 291 291 291 292 292 292 291 292 292 293 292 291 290 291
296 295 295 299 304 303 294 292 291 286 289 292 293 295 296 297 297 298 299 297 298 295 294 293 295 295 294 296 295 295 296 294 291 292 292 292 293 296 295 293 295 294 296 299 310 295 289 284 282 278 276 275 272 270 273 279 283 284 287 287 288 288 285 286 280 279 277 279 281 276 275 283 285 290 291 290 289 291 292 291 292 290 290 289 289 290 290 289
292 284 290 296 298 297 296 297 295 293 288 293 289 291 295 293 297 299 300 298 297 296 294 295 293 295 292 293 292 293 294 295 293 290 292 291 292 295 294 292 294 294 303 313 304 295 288 285 285 285 283 282 284 283 284 286 283 285 285 287 287 287 286 285 280 277 279 278 280 280 283 287 287 289 288 290 289 289 289 289 290 290 289 289 288 289 289 289
291 287 287 289 296 292 293 296 296 296 292 295 287 292 292 293 295 297 298 296 299 297 296 294 295 293 292 292 289 289 291 293 294 291 290 291 291 294 295 294 296 299 313 309 301 288 284 284 285 286 286 288 288 287 287 288 287 287 286 286 286 286 286 285 282 282 282 282 281 285 286 285 287 288 288 289 289 287 287 287 287 287 288 289 289 289 294 291
287 288 294 298 291 286 291 288 297 295 296 295 291 293 293 293 293 291 295 298 298 298 295 294 294 294 291 292 289 287 289 289 291 288 291 292 294 293 297 297 296 303 311 299 301 291 284 282 284 285 286 287 287 287 287 287 286 287 287 286 286 287 285 285 285 287 285 284 283 287 284 284 286 288 288 289 291 290 288 287 287 288 288 288 288 288 288 288
295 294 296 299 290 291 293 295 297 296 294 294 289 293 292 293 293 294 294 294 297 294 295 287 291 292 292 293 293 289 288 287 285 288 290 290 291 292 291 293 296 296 300 293 292 287 288 282 284 285 286 286 286 286 286 286 284 285 286 286 287 287 287 287 287 288 287 287 289 288 287 286 289 289 288 288 289 288 287 288 289 288 288 289 290 288 288 288
294 295 294 301 300 298 297 296 294 293 291 295 287 289 292 292 291 294 296 294 288 293 295 294 292 293 295 295 292 290 289 292 292 290 291 292 290 291 288 291 291 296 293 291 290 291 290 282 289 284 283 283 285 286 285 285 284 284 286 286 286 287 287 287 287 288 288 287 288 288 286 287 289 289 290 287 286 286 287 289 288 288 288 290 290 289 288 288
298 302 301 295 292 296 297 294 292 289 288 287 288 291 293 294 293 294 294 298 296 294 296 294 294 294 293 293 293 292 293 293 293 294 295 293 292 293 293 293 295 292 292 289 289 290 290 281 284 283 281 284 284 285 286 285 284 283 284 284 285 286 284 286 285 288 286 286 288 285 283 285 286 285 285 286 286 287 287 287 286 288 289 291 289 289 288 288
298 301 299 298 291 296 295 297 296 294 289 288 293 291 292 292 294 296 292 293 296 297 297 296 295 294 292 291 293 295 297 296 296 297 298 298 297 295 296 296 296 295 291 292 288 286 288 283 283 279 280 282 283 284 283 282 283 283 284 284 287 288 289 289 288 288 290 289 285 280 284 286 284 289 285 285 285 285 286 286 286 287 288 288 288 288 288 289
Wind_Speed
20 21 20 18 17 16 15 15 14 13 13 12 12 12 11 11 10 10 9 9 9 9 9 9 7 5 5 4 4 2 3 1 1 0 1 10 7 6 7 5 10 12 8 4 4 3 1 2 1 3 2 1 1 0 0 1 1 2 1 1 3 3 1 5 3 4 1 3 10 10 5 5 7 7 3 1 5 1 1 3 2 3 5 3 1 1 6 5
21 20 19 18 17 16 15 14 14 13 12 12 12 11 11 10 10 9 9 9 8 8 8 7 6 4 4 3 2 2 3 2 1 2 13 4 3 7 6 6 11 11 8 3 5 4 5 0 1 3 3 1 1 1 0 0 1 2 1 1 5 4 6 4 4 5 0 8 7 7 9 2 5 1 2 2 4 1 1 1 1 3 7 0 5 4 7 8
20 19 18 18 17 15 15 14 14 13 12 12 12 11 10 10 9 8 8 8 8 8 7 6 5 4 3 2 2 3 1 1 0 3 5 8 9 6 7 4 10 10 6 3 4 6 4 5 1 2 2 0 3 1 1 0 3 3 1 4 6 7 5 6 5 8 6 6 8 10 6 0 6 1 1 1 2 1 3 3 1 4 7 10 2 4 7 7
18 17 17 17 16 15 14 14 14 13 12 12 11 11 10 9 8 7 7 7 7 7 6 6 5 4 3 2 2 2 1 0 0 0 2 2 7 8 8 7 9 6 6 5 6 4 3 5 3 2 1 1 2 1 0 1 0 2 1 3 5 2 4 5 4 7 8 4 4 6 6 7 5 6 1 2 3 5 6 7 7 9 11 11 7 7 7 8
17 16 17 17 16 14 14 14 14 13 12 12 11 10 9 9 8 7 6 6 6 6 6 5 4 3 2 2 2 3 0 3 1 1 1 2 5 8 8 8 9 3 3 7 8 5 5 3 1 3 2 1 1 1 2 1 3 2 7 6 6 4 4 12 8 9 6 5 4 5 5 8 1 0 2 3 4 8 3 5 10 9 9 8 10 9 8 8
17 17 17 17 16 15 14 14 13 13 12 11 11 10 9 9 8 7 6 6 6 7 6 4 4 4 3 4 2 2 0 2 1 0 2 1 7 9 7 7 8 6 7 4 3 3 4 3 2 1 1 1 1 1 3 1 1 3 5 6 5 4 4 6 5 6 3 4 4 5 6 2 2 4 3 4 7 7 8 1 6 9 8 3 4 7 7 9
16 15 16 15 14 13 13 13 13 12 12 11 10 9 9 8 7 6 5 6 7 6 5 5 4 5 4 4 0 0 1 4 2 2 6 4 7 10 9 8 7 5 4 4 2 2 2 2 2 1 2 2 1 1 5 1 1 4 6 3 7 3 8 12 11 11 6 7 7 6 1 2 2 6 0 2 9 10 9 4 7 7 2 8 10 11 13 13
14 14 13 13 11 11 10 12 12 11 10 10 9 9 8 7 7 6 5 5 6 6 5 5 6 5 7 1 0 2 2 2 1 2 6 9 10 11 11 5 6 5 4 4 5 3 2 2 1 2 2 2 2 1 3 6 1 2 3 2 7 4 7 10 9 11 7 7 9 3 3 4 5 3 1 6 7 5 5 5 4 3 4 4 8 9 7 6
16 19 18 19 20 18 16 13 11 11 11 9 9 8 7 7 6 6 4 3 4 5 5 7 7 7 2 0 2 1 0 2 1 5 7 9 9 9 9 3 3 6 3 3 0 4 2 1 1 2 2 1 0 4 3 4 7 2 3 4 7 9 10 13 11 10 4 3 3 2 4 4 7 3 2 6 6 5 7 5 1 3 4 4 5 6 6 6
24 22 22 21 20 19 17 15 13 12 10 9 9 8 7 6 5 4 4 3 4 6 8 8 7 6 2 1 2 4 2 4 3 5 6 10 9 9 8 6 6 7 4 1 3 2 1 2 1 3 1 0 1 3 0 3 5 1 6 6 7 13 8 8 5 9 8 2 2 2 1 1 4 1 3 4 6 10 10 7 7 6 8 8 7 8 10 12
25 24 24 22 21 20 18 17 15 13 11 9 8 8 6 4 3 3 3 4 6 7 8 8 7 5 0 1 2 1 2 5 1 4 7 9 10 9 5 7 6 5 4 1 3 5 3 4 2 1 1 0 1 6 1 4 0 6 5 7 5 7 7 6 7 3 4 3 1 2 2 1 3 1 4 9 11 10 10 11 8 8 7 10 11 11 10 11
25 25 25 24 23 21 20 18 17 14 12 10 7 6 4 2 1 2 1 5 7 8 9 9 8 2 0 2 2 1 1 1 5 4 5 8 5 7 7 9 8 6 7 4 5 2 2 2 2 2 1 1 4 3 3 3 1 4 2 5 8 10 6 9 9 9 2 3 7 1 4 3 5 5 8 8 7 9 11 10 9 11 11 11 11 11 10 10
26 25 26 26 25 23 22 21 19 18 15 10 6 4 3 2 2 0 3 6 7 9 10 10 5 0 0 1 5 7 1 4 7 6 4 2 3 2 4 5 6 4 5 2 1 2 4 3 2 1 2 0 2 1 1 1 3 2 2 1 5 9 7 10 6 9 6 3 5 2 2 6 7 2 11 12 7 10 13 10 10 11 11 11 11 11 11 10
27 26 26 26 26 24 22 21 20 19 16 12 6 2 5 4 3 4 6 5 8 8 9 7 1 0 1 2 4 2 1 4 7 5 3 0 2 1 3 1 2 1 0 1 2 4 3 3 2 1 1 2 3 3 6 4 4 1 2 4 3 6 5 11 3 9 10 1 6 3 1 7 7 9 15 10 7 13 11 11 13 11 12 12 12 12 11 12
27 27 26 26 26 26 23 20 19 18 16 12 7 8 7 6 5 6 7 8 7 7 7 3 0 1 2 4 4 3 8 2 3 3 5 5 2 2 3 3 3 4 2 2 0 1 4 4 2 1 2 2 1 3 5 4 4 2 4 4 4 6 7 13 4 6 6 5 8 5 2 5 6 15 15 10 8 13 15 12 14 13 13 13 12 12 13 13
27 27 27 26 26 26 24 20 17 15 12 11 8 8 7 7 8 8 6 5 6 7 2 2 1 2 2 1 0 2 0 0 2 3 3 4 4 1 1 6 2 1 0 2 2 2 0 2 0 2 1 2 3 1 4 7 3 5 6 3 3 2 3 6 5 3 5 4 4 8 1 7 7 14 10 10 10 15 15 13 14 14 14 13 13 11 12 14
28 27 27 26 26 26 26 21 16 14 10 8 9 8 7 7 9 10 9 6 3 2 1 1 0 0 1 1 0 2 3 3 1 1 2 2 2 1 2 2 1 3 2 3 1 2 0 1 2 1 4 2 1 3 5 6 6 6 2 1 2 1 4 3 10 3 7 6 6 9 8 4 4 9 12 14 10 14 15 14 15 13 11 13 14 14 13 12
28 28 27 27 26 26 26 24 16 11 8 7 6 3 5 7 8 7 5 4 0 1 2 2 0 1 3 1 1 1 0 3 2 3 3 0 3 1 3 1 0 4 4 3 2 2 1 1 4 2 3 3 1 3 3 4 2 4 5 5 4 1 1 5 3 6 10 9 11 7 13 11 9 11 13 12 11 15 15 14 14 13 12 13 16 14 17 15
28 29 28 28 26 25 25 25 20 10 4 7 9 8 5 1 2 1 2 0 0 1 1 0 1 1 2 1 3 6 2 7 1 3 2 2 0 2 2 1 3 1 1 2 1 1 2 1 4 4 6 6 4 4 6 8 3 5 4 3 1 4 4 3 4 4 6 11 12 13 7 8 11 12 11 12 11 14 14 13 12 11 11 12 12 16 15 15
28 29 29 29 28 26 24 23 23 13 1 3 0 1 1 6 5 1 2 0 1 3 1 1 1 2 4 5 2 3 1 2 2 1 2 1 6 2 1 1 2 3 1 1 3 2 1 2 2 5 7 8 5 6 8 6 4 2 2 0 3 1 6 3 3 6 1 7 9 5 10 11 10 9 9 10 12 16 16 14 11 10 10 11 16 16 17 17
28 29 29 29 29 27 25 23 20 18 3 2 2 4 5 1 3 4 7 8 4 2 1 3 4 3 4 1 3 2 0 1 1 1 1 2 4 4 1 2 3 0 1 1 1 2 3 3 4 5 7 7 8 5 4 1 1 2 1 0 4 2 2 4 1 2 7 7 2 3 14 11 9 10 11 11 16 16 12 10 11 10 10 10 14 16 15 14
27 28 29 30 29 28 26 23 20 15 9 2 5 6 1 1 2 1 1 5 7 2 2 4 1 3 4 6 4 3 3 1 2 2 1 4 0 1 2 2 1 1 2 2 2 5 3 1 4 5 5 1 3 0 2 4 2 1 3 2 1 4 4 9 4 2 1 13 1 1 14 9 11 12 14 14 14 12 10 10 9 8 8 9 11 11 11 12
29 29 26 30 30 29 27 23 18 10 5 6 6 3 2 4 1 1 1 1 5 3 1 0 1 4 5 4 1 5 1 3 4 3 4 3 1 3 3 1 1 1 2 1 0 2 5 4 6 5 3 1 2 5 6 3 3 3 2 1 3 3 1 3 3 5 6 4 7 5 12 5 8 12 14 12 12 11 10 10 10 8 9 10 10 9 11 11
28 28 26 28 30 31 27 24 13 4 5 0 2 4 4 3 2 3 0 2 3 8 3 5 3 2 4 0 3 4 4 2 2 2 2 5 4 3 2 3 0 0 3 0 2 3 5 7 1 2 3 1 2 2 4 2 1 0 2 1 1 1 3 4 2 3 4 6 9 11 8 5 5 7 7 8 9 9 8 7 8 8 9 8 8 10 9 10
27 26 25 24 30 30 31 18 7 4 4 1 1 2 5 3 0 2 1 2 0 4 3 1 2 2 2 1 1 2 1 1 6 2 2 5 3 2 0 1 1 2 3 0 3 0 7 4 1 2 2 4 1 1 1 3 1 2 3 6 5 3 3 4 2 2 2 2 6 4 5 2 4 6 6 4 5 7 5 6 6 5 5 6 9 8 7 7
26 27 27 24 28 31 24 3 4 6 4 1 0 5 5 4 1 3 3 3 1 3 2 2 1 0 1 0 2 2 4 1 2 3 3 4 5 2 1 0 1 1 0 3 2 2 1 2 4 1 0 2 3 1 1 1 1 1 2 6 5 4 3 2 3 2 0 2 2 0 5 2 1 3 6 5 4 4 3 4 3 3 3 5 5 5 5 5
26 27 27 25 25 26 8 1 4 4 4 3 3 4 5 4 2 1 1 4 1 0 0 1 1 1 1 1 2 2 1 2 3 3 1 1 2 1 2 4 1 0 1 1 4 1 1 4 6 7 5 4 4 5 0 2 4 1 1 3 2 1 2 3 2 3 4 2 2 3 4 7 3 4 6 7 5 3 3 2 3 2 3 2 3 2 3 3
27 27 26 26 25 15 1 2 6 3 1 5 6 6 6 4 1 3 3 2 1 2 1 1 0 1 1 1 3 1 2 0 2 1 0 3 2 2 1 3 3 2 0 3 1 5 1 4 4 5 4 5 2 1 2 2 2 2 2 0 3 2 3 3 3 3 1 0 6 2 1 5 2 2 6 9 7 2 2 2 2 1 1 1 1 1 1 2
28 27 25 24 27 9 2 0 0 4 5 5 6 5 4 1 4 6 3 1 1 0 1 2 3 1 6 3 2 2 1 0 2 1 3 2 5 1 1 1 2 5 2 1 3 1 2 1 1 3 2 2 3 1 0 6 2 3 2 1 2 3 3 1 3 3 0 2 4 3 1 2 2 4 7 4 3 8 7 6 5 4 4 3 3 2 2 1
29 28 24 23 15 3 2 1 3 4 3 5 6 5 1 2 2 1 3 3 1 0 0 2 1 3 3 3 1 4 1 2 2 2 4 1 5 5 1 2 3 2 1 4 2 4 2 5 4 4 0 1 1 2 0 1 1 3 3 1 1 3 2 2 6 2 3 1 6 4 0 3 3 9 12 11 10 12 9 5 4 4 4 4 3 3 3 3
29 29 24 17 3 2 3 5 7 4 6 6 5 2 2 7 2 4 1 3 1 2 1 2 1 4 3 2 2 3 1 2 3 2 1 3 1 5 2 1 6 4 3 6 1 5 3 1 2 1 1 2 1 1 0 0 2 3 3 1 6 5 7 3 4 4 1 4 3 1 1 2 4 2 9 9 1 12 15 13 11 8 6 5 4 3 3 3
29 30 25 13 3 2 0 4 9 8 8 8 3 4 3 3 3 2 3 3 1 2 2 2 1 1 3 1 2 3 2 3 2 3 1 2 1 2 2 3 1 1 3 1 2 5 1 3 2 5 3 5 1 2 5 4 5 9 4 8 6 5 5 1 3 1 2 4 0 3 2 2 4 4 4 6 4 9 6 9 11 10 7 6 4 5 4 3
30 29 26 4 2 1 4 6 6 8 8 4 3 4 2 4 1 3 1 2 1 0 0 1 1 2 1 1 0 2 2 1 2 1 2 1 2 3 1 0 3 1 2 2 1 5 2 3 5 4 4 2 2 4 5 7 5 7 3 2 3 1 3 2 4 1 4 5 4 1 2 3 3 4 1 3 4 6 7 7 7 8 9 7 6 5 4 3
28 26 11 5 5 7 6 5 7 6 7 5 3 3 7 1 3 5 1 2 0 2 2 1 3 2 2 1 1 1 0 1 2 2 1 0 3 1 1 1 1 2 4 1 0 1 1 3 3 1 0 2 2 3 3 4 2 3 2 1 4 5 1 2 2 2 3 3 3 3 2 3 1 2 5 1 2 4 5 6 5 5 5 5 4 3 3 3
29 19 6 6 2 3 7 6 6 3 1 4 8 4 1 5 2 1 2 2 1 1 0 2 0 2 2 1 3 0 0 1 1 1 3 2 2 2 4 2 1 5 2 3 2 2 1 5 6 3 1 1 1 1 2 2 1 2 2 3 4 2 6 3 4 2 2 2 4 1 3 1 2 1 2 1 4 3 4 4 3 5 4 4 3 4 4 4
16 10 5 2 3 2 3 6 3 2 1 6 4 2 2 4 2 2 1 2 0 0 3 3 4 0 2 2 1 1 5 1 3 2 1 1 2 2 2 1 2 3 4 2 3 2 2 2 2 7 1 2 1 1 1 1 0 1 1 1 1 3 5 1 1 1 1 3 6 1 6 3 3 1 1 3 4 4 4 5 5 6 5 4 5 5 5 4
10 10 7 6 4 6 9 5 3 1 6 6 5 2 5 3 5 2 3 1 1 2 2 2 3 1 1 1 1 5 2 2 1 2 3 1 2 2 1 2 4 0 4 4 2 2 3 5 2 2 2 1 1 1 1 0 3 5 0 3 1 2 3 3 3 2 2 3 6 1 5 3 1 5 3 3 7 6 9 8 7 7 6 5 6 6 6 6
8 6 4 3 4 9 9 6 1 5 4 3 1 7 1 1 1 3 0 1 0 2 1 2 3 3 2 1 2 0 3 1 5 3 1 1 1 2 2 1 1 2 1 1 2 1 2 3 3 1 0 6 4 1 3 1 2 2 2 1 1 3 0 2 2 2 1 3 4 3 1 3 7 6 4 8 11 13 13 10 8 10 8 8 7 7 6 5
3 1 4 1 2 10 12 4 3 2 2 1 3 1 3 4 2 2 6 5 1 3 0 3 2 0 2 1 2 1 1 0 1 0 1 1 0 1 1 3 1 2 1 5 2 1 1 2 5 2 1 3 3 3 2 2 5 2 2 1 0 2 2 2 3 2 4 4 2 7 1 6 6 6 15 16 17 16 14 10 13 11 9 9 7 6 7 6
6 4 2 2 6 14 15 2 3 4 4 2 4 3 1 1 3 5 2 3 2 2 3 1 2 0 1 4 2 0 1 1 2 1 1 2 1 1 1 1 2 1 4 1 2 1 1 1 3 2 3 2 2 0 2 3 1 3 4 2 3 1 2 1 0 2 3 2 3 2 6 5 5 4 10 15 16 16 16 17 12 10 9 7 7 7 7 7
3 1 5 4 13 14 9 8 5 2 0 1 1 2 2 1 4 2 3 5 1 2 2 2 4 4 4 2 3 1 1 1 2 2 3 2 3 3 2 4 2 2 0 3 3 0 2 1 5 4 5 2 7 4 2 4 3 3 3 3 3 0 1 1 9 3 1 2 4 3 9 5 7 0 4 8 11 13 14 13 9 9 8 7 7 7 7 7
5 6 6 10 13 11 6 5 1 0 1 1 1 0 3 5 2 4 3 1 2 2 2 2 0 2 2 3 3 3 2 1 2 0 2 5 2 3 1 4 3 2 3 2 2 2 2 3 1 3 6 6 7 4 3 2 2 2 5 2 3 2 4 3 2 4 2 3 3 2 2 9 5 2 4 6 5 9 10 9 9 7 7 6 7 7 7 5
5 5 11 12 8 5 6 2 2 2 1 2 4 2 1 2 2 2 3 2 2 1 0 1 4 3 4 3 2 2 4 2 5 4 2 2 3 7 6 7 6 5 5 1 2 1 3 1 0 4 6 7 5 1 3 3 5 4 2 2 2 0 3 4 3 2 2 2 1 2 3 6 4 3 3 2 0 3 5 7 7 5 5 5 6 6 5 5
4 6 8 4 5 3 3 1 3 3 4 6 3 4 3 2 1 4 1 3 0 1 1 1 2 4 2 2 3 3 5 1 3 3 2 2 1 5 4 7 7 3 3 4 4 4 1 2 3 2 4 6 4 4 4 3 3 1 2 2 1 2 3 2 4 1 1 6 7 4 11 4 2 3 3 3 3 4 5 3 3 5 3 4 3 4 4 4
6 4 4 9 7 6 3 1 1 1 3 4 4 8 6 2 3 3 0 3 1 2 0 2 3 2 1 1 1 0 3 6 2 2 2 2 4 1 5 6 5 2 2 3 3 6 1 3 4 2 5 6 4 1 2 3 4 1 1 1 1 4 4 1 2 1 3 3 4 4 5 7 3 2 2 3 2 2 1 2 1 1 3 1 3 4 4 4
5 4 7 7 6 7 5 1 5 2 2 6 5 4 1 2 5 5 2 5 2 2 3 2 1 1 2 1 1 2 5 2 4 2 3 2 2 2 2 5 6 4 4 7 6 4 1 1 3 6 8 9 10 6 3 3 1 2 3 1 3 1 2 2 4 2 8 3 5 7 7 11 7 2 2 3 2 5 5 3 3 1 2 2 3 4 4 4
1 1 4 8 7 4 4 6 5 5 3 3 2 2 4 3 3 6 1 1 1 3 3 0 0 1 2 1 3 3 2 1 2 0 4 3 3 2 4 4 2 4 6 5 4 6 2 1 5 6 8 10 8 7 5 5 6 5 6 7 5 4 4 5 6 9 4 0 13 5 11 10 13 7 6 5 5 4 4 4 3 2 2 2 3 3 5 4
2 1 2 1 1 7 9 4 10 9 2 2 4 1 3 4 4 3 6 2 5 1 1 2 1 1 4 6 3 1 1 2 1 3 1 2 1 2 1 0 3 4 5 2 1 3 5 4 4 4 8 9 8 6 5 2 5 6 7 8 7 7 5 8 10 8 4 7 15 10 5 6 6 6 5 6 8 8 7 5 3 2 2 3 3 4 5 6
1 2 2 2 2 2 2 7 7 4 8 3 3 1 5 5 8 4 2 5 5 3 1 3 3 4 2 1 0 2 1 1 3 2 3 2 5 2 1 2 4 2 2 1 2 2 3 5 5 5 7 6 6 7 5 7 5 4 8 10 10 9 12 13 12 8 11 14 15 12 10 11 12 7 5 5 5 4 2 0 0 0 3 4 4 4 5 5
3 3 3 3 3 7 9 8 4 5 7 3 3 3 1 1 4 4 3 2 3 4 1 3 5 6 6 2 2 2 5 6 5 5 2 3 3 1 3 6 2 1 1 4 2 1 4 5 5 2 2 6 7 7 4 6 8 9 11 9 9 11 12 11 7 12 7 9 14 14 13 18 6 2 1 2 2 2 2 0 1 4 4 4 4 4 5 4
3 3 4 6 8 5 3 3 3 3 6 2 3 4 3 5 6 3 5 3 7 7 6 7 3 5 2 3 3 5 5 5 5 8 7 4 8 6 4 5 6 3 3 2 1 1 3 4 2 2 2 7 2 7 9 3 4 9 10 4 10 10 9 9 9 11 6 14 14 6 8 12 2 1 3 2 3 2 1 1 3 4 4 4 5 4 4 4
4 5 5 3 5 3 7 3 7 4 7 4 5 3 2 4 1 5 7 4 1 0 2 4 3 3 6 4 7 7 5 4 8 10 10 9 7 6 6 6 8 8 5 8 1 4 5 5 3 2 3 8 4 3 0 1 5 12 13 12 17 15 14 10 7 5 11 10 6 8 13 5 3 1 3 1 1 0 0 3 4 6 5 2 3 3 3 4
Wind_Direction
337 336 333 332 330 326 322 316 312 309 304 299 296 294 291 289 285 282 276 270 264 263 267 271 276 278 271 282 293 343 49 53 83 62 212 240 196 170 175 359 148 141 151 91 82 115 8 28 62 337 67 112 310 10 270 88 128 68 84 125 338 216 194 216 207 196 227 303 297 315 325 359 322 333 311 315 354 25 323 213 307 302 267 108 214 99 115 125
337 335 334 332 332 330 325 320 314 309 306 301 298 294 291 287 284 280 275 267 261 258 262 268 275 274 272 271 291 81 75 92 165 212 228 215 176 175 174 72 135 145 113 84 122 116 115 254 308 43 46 29 310 255 19 295 129 126 140 96 258 188 239 158 208 230 295 272 272 283 302 239 255 283 291 14 301 341 273 257 341 284 286 292 56 126 127 136
333 333 333 333 334 333 330 324 319 312 306 303 298 295 291 287 283 278 271 265 257 254 256 261 264 266 260 257 253 118 158 26 139 261 264 245 218 164 166 134 151 159 138 153 187 141 148 180 183 73 14 73 351 197 31 256 132 238 141 285 244 215 245 207 229 255 202 252 282 291 282 156 259 212 270 282 258 328 236 238 309 253 241 236 160 168 144 149
333 329 333 335 334 334 331 327 321 315 307 304 300 295 294 290 283 276 268 259 253 248 247 248 246 245 238 215 217 132 111 224 319 246 260 253 190 156 158 144 150 139 94 74 143 110 105 82 67 73 74 64 302 23 47 250 99 268 93 203 253 212 326 269 206 242 262 201 254 257 294 317 273 222 147 219 353 258 242 227 198 219 229 227 175 168 163 155
330 331 336 339 337 333 332 327 320 314 309 302 301 298 297 293 287 277 266 250 242 240 238 233 231 221 186 176 166 144 35 55 207 216 245 194 161 152 150 132 145 125 91 134 83 62 78 103 81 46 68 258 354 347 245 292 196 107 215 223 242 306 281 265 263 267 262 230 223 272 317 266 288 72 208 176 224 257 235 225 216 225 227 202 177 182 161 165
335 338 339 338 334 333 329 324 317 312 309 302 299 299 295 293 289 282 264 244 236 231 229 222 214 200 173 127 108 102 73 73 245 253 91 220 151 140 131 125 129 106 97 67 104 106 92 16 68 37 353 70 292 61 267 205 113 285 293 264 245 236 250 289 291 262 226 269 231 274 239 311 304 277 233 187 216 244 233 208 214 226 232 197 149 143 159 168
335 337 338 333 329 328 327 321 317 308 299 301 294 292 293 290 290 287 266 236 225 220 210 204 174 177 171 134 47 52 124 267 313 257 81 97 140 122 110 114 110 81 77 97 64 85 120 102 77 187 101 2 302 226 269 293 208 203 259 307 302 215 258 278 285 287 269 227 245 208 322 281 308 317 134 196 242 245 297 291 247 248 143 139 149 173 173 176
338 340 333 330 325 326 321 322 315 303 295 294 292 285 284 285 288 288 275 238 212 205 195 174 179 169 148 142 83 350 29 271 239 26 115 98 111 111 101 76 102 92 101 136 137 125 124 84 97 140 70 83 260 23 311 339 206 190 271 290 290 317 267 288 285 291 292 252 249 235 232 235 193 214 8 267 278 324 285 273 251 167 129 140 155 169 162 161
344 348 348 349 349 347 344 333 314 312 309 294 290 286 276 275 279 287 282 228 202 186 176 166 172 166 153 59 110 63 24 245 310 166 119 106 112 118 121 91 108 108 123 154 130 162 130 255 121 185 282 295 1 337 309 26 323 182 232 312 301 298 309 302 312 295 281 279 182 160 208 237 230 243 237 245 352 305 298 338 349 125 148 147 157 160 151 128
353 353 354 354 351 348 346 341 335 325 312 297 285 277 270 267 271 284 276 220 185 166 167 166 163 154 101 105 52 67 256 125 89 136 121 116 117 103 60 126 114 117 116 213 90 117 104 202 114 201 148 209 99 273 148 125 246 170 297 287 288 291 309 304 320 300 306 217 219 239 301 210 280 89 300 4 347 342 334 351 15 37 34 27 35 48 49 62
353 353 353 353 354 352 350 346 341 335 321 307 288 276 267 264 274 278 255 203 171 165 161 163 159 152 13 90 91 146 213 72 121 125 132 126 121 127 145 143 154 131 116 114 211 191 168 124 188 90 40 211 346 292 159 234 350 310 273 308 306 301 295 256 294 293 348 14 60 172 253 244 313 107 353 315 326 345 9 14 35 52 54 52 57 55 60 67
354 353 352 353 354 354 354 351 347 338 330 318 294 275 268 268 268 277 243 166 162 155 158 158 161 154 74 68 128 212 31 205 134 133 132 133 141 172 165 171 172 160 138 174 243 265 149 164 121 56 264 32 308 306 281 244 319 275 19 319 318 337 349 7 2 327 2 4 1 291 354 8 345 40 314 324 332 17 40 30 42 63 64 64 64 65 66 74
353 353 353 353 354 354 356 354 350 352 349 343 312 258 221 168 163 47 162 147 155 157 160 162 144 100 90 8 234 237 346 131 126 115 142 73 101 74 165 186 179 164 173 137 125 219 166 154 95 55 236 122 247 250 267 54 305 351 44 67 331 349 11 339 346 334 19 335 9 35 29 284 301 11 354 337 10 50 44 43 51 63 68 70 72 73 69 66
352 353 353 353 352 354 357 358 352 355 356 355 356 153 133 135 127 131 144 148 153 161 156 153 112 98 82 237 273 320 96 124 113 102 173 178 83 108 87 158 182 152 65 181 162 161 147 170 138 231 139 184 259 291 341 339 26 334 294 63 64 9 332 314 11 319 28 319 23 71 113 282 297 10 356 0 18 70 60 53 61 62 65 67 68 69 71 68
351 351 353 353 352 352 356 0 357 358 360 7 41 101 117 119 124 122 122 121 147 155 150 129 295 83 46 273 256 321 147 129 120 218 186 131 143 95 184 125 189 216 219 179 163 164 126 108 90 26 267 251 359 14 314 346 8 358 52 329 329 65 300 314 336 9 51 320 10 66 47 318 318 4 3 10 24 67 63 54 61 64 71 73 71 68 68 70
350 350 351 352 352 351 352 1 1 1 5 23 57 87 100 101 102 109 111 116 128 130 127 323 354 98 98 6 7 151 57 98 278 212 204 137 166 154 150 162 161 114 246 278 181 188 61 134 215 204 282 359 50 60 351 11 347 355 57 308 0 21 308 335 351 334 330 290 16 51 292 347 3 354 5 11 42 69 73 62 63 68 70 75 74 71 71 69
348 349 349 351 352 351 349 356 4 3 12 23 63 68 80 90 91 91 99 101 107 119 336 120 10 287 55 254 125 359 269 253 209 44 128 202 133 124 80 52 17 346 348 333 70 131 330 121 313 55 40 93 145 83 9 15 333 323 48 64 231 30 340 328 313 348 350 45 10 9 67 28 319 3 26 26 22 66 67 69 70 67 70 76 77 75 71 68
347 347 348 348 351 351 349 348 3 2 25 37 62 83 93 109 119 105 62 54 131 255 281 215 127 39 305 353 345 321 175 275 255 183 110 234 141 75 81 64 335 24 26 4 10 69 337 252 33 202 14 359 20 34 91 261 234 281 322 350 330 317 229 251 335 306 14 35 48 27 58 32 24 27 34 35 33 60 62 61 64 64 64 72 80 76 74 70
346 346 346 347 348 351 349 343 347 4 32 65 90 78 73 82 329 6 91 47 58 349 24 335 44 55 191 210 279 304 222 215 101 116 210 111 62 106 70 86 61 28 333 46 269 68 358 61 26 34 336 325 297 163 188 230 179 223 208 232 244 340 308 311 259 284 46 38 40 46 67 39 30 34 34 41 37 54 60 58 57 59 63 69 70 75 74 74
346 346 345 345 344 348 348 344 336 349 224 122 95 81 13 12 5 351 333 40 200 206 206 236 121 311 298 286 271 255 256 58 123 294 80 221 103 111 40 67 7 67 90 245 302 38 84 71 302 282 266 270 264 219 219 240 194 194 117 123 259 258 281 268 270 261 52 78 26 41 64 50 39 37 35 41 53 57 56 56 53 50 54 62 73 71 75 72
347 346 345 343 342 342 347 341 336 329 358 172 114 67 40 351 25 326 319 281 231 244 218 236 187 198 227 288 276 332 90 299 90 215 215 122 104 115 291 46 27 354 274 228 192 297 64 42 293 236 242 259 279 272 231 262 143 200 203 320 293 176 281 252 276 331 318 114 10 24 66 47 45 41 46 46 55 50 44 51 54 57 55 60 66 74 72 78
345 346 343 343 340 339 340 340 333 324 317 34 54 71 171 239 235 232 94 327 325 270 217 261 290 285 307 253 240 142 77 15 322 276 291 141 273 123 296 93 130 238 310 341 21 19 26 207 255 265 271 315 324 310 171 167 198 116 205 181 17 282 234 293 299 268 77 85 32 48 74 60 54 56 57 55 58 57 46 45 49 52 58 63 65 69 73 72
344 345 344 341 339 335 337 332 330 325 25 24 41 72 30 314 321 294 86 149 277 270 299 20 224 263 294 262 263 132 99 218 253 295 191 118 37 197 154 80 83 285 349 44 287 9 359 293 248 261 339 356 67 47 100 87 71 111 100 69 208 235 69 308 290 339 358 124 157 96 88 70 68 66 66 60 63 68 57 52 51 48 58 62 63 69 77 75
342 342 343 341 337 335 330 329 311 18 27 75 85 35 289 348 41 110 54 226 294 309 205 218 168 188 238 90 203 114 137 263 102 282 265 132 146 184 107 171 161 46 275 235 148 165 220 249 317 350 31 1 316 58 85 77 310 336 135 155 242 260 235 167 257 7 16 80 123 106 75 53 27 82 75 66 63 62 50 51 53 53 56 61 71 70 69 80
340 340 342 338 338 331 327 329 47 336 288 96 355 333 324 320 250 163 94 326 352 290 234 299 162 247 224 87 34 145 236 8 227 223 203 123 141 65 243 199 120 249 222 194 104 319 296 266 227 11 23 34 50 345 70 121 226 323 250 189 215 222 241 274 309 83 29 200 257 130 42 347 294 97 93 77 56 49 31 53 49 47 59 69 74 77 78 74
339 338 340 341 337 332 320 21 334 331 2 78 253 321 318 320 103 116 96 76 322 267 352 226 171 222 127 223 28 114 65 270 230 225 165 200 157 144 65 20 101 290 214 158 209 196 236 358 46 345 73 59 71 102 235 146 141 107 263 195 228 218 217 286 319 66 337 190 258 160 133 242 313 135 131 103 78 66 36 43 46 43 59 74 81 83 78 84
337 337 338 340 337 338 12 299 285 338 33 320 304 321 315 321 223 155 23 6 47 254 174 241 77 262 149 255 129 89 57 266 313 43 80 283 169 348 131 271 349 202 344 147 40 293 2 328 21 36 52 63 62 39 295 122 95 255 236 151 158 205 266 262 183 183 224 268 311 51 112 142 207 239 151 129 111 97 52 46 42 65 63 59 69 61 89 96
334 336 338 337 333 340 182 324 350 33 220 282 312 319 319 285 99 54 78 60 306 290 57 295 195 310 80 301 96 182 214 235 23 268 76 310 116 2 99 213 183 185 317 68 250 254 95 342 32 13 47 57 70 204 296 141 139 222 261 163 276 235 251 214 167 179 191 163 270 343 63 67 237 234 165 147 138 151 194 178 190 165 157 132 132 121 113 113
333 333 338 336 329 325 179 47 178 342 300 306 297 320 297 66 96 102 113 96 243 76 221 77 283 47 333 356 56 6 320 344 168 261 321 60 44 163 212 243 137 130 49 118 191 295 298 134 267 109 96 26 247 250 188 157 56 284 251 41 98 77 66 61 153 126 336 87 250 244 220 124 269 193 183 197 159 192 193 196 189 198 186 185 182 192 172 135
331 329 335 339 328 86 343 65 210 251 291 312 319 305 27 56 36 41 29 256 340 11 17 249 32 283 33 40 315 356 132 308 149 324 31 142 338 39 64 133 124 105 192 9 112 200 287 306 168 85 352 231 240 266 163 101 226 283 47 46 340 58 6 14 58 85 66 260 254 228 242 126 238 209 194 176 212 183 158 181 197 208 219 224 209 189 190 152
329 326 332 341 355 322 332 339 299 335 333 329 326 44 74 40 111 99 166 227 347 275 9 16 288 15 29 51 334 307 31 352 336 33 176 359 351 34 33 64 40 51 38 5 242 323 357 36 103 260 301 290 102 240 345 29 289 76 45 45 359 341 4 34 344 33 132 277 262 255 303 145 246 262 213 225 41 160 167 173 178 193 206 204 211 222 216 206
328 323 328 331 221 339 198 296 304 331 333 328 25 58 63 270 14 145 213 315 75 284 81 289 318 92 26 349 125 320 331 340 5 47 79 26 53 24 350 156 143 14 349 352 291 349 95 124 281 305 299 37 339 38 311 358 4 32 37 29 24 295 27 287 9 280 219 206 317 356 356 15 235 216 247 191 194 157 175 167 171 182 198 210 223 225 227 225
326 320 322 265 159 228 232 258 314 308 326 351 67 49 58 95 249 264 287 321 245 163 282 134 263 2 299 56 331 298 276 125 329 65 123 3 91 357 212 183 187 180 261 257 325 19 285 294 353 310 3 20 88 69 325 1 345 11 57 96 76 32 29 261 276 239 300 289 270 326 345 253 245 310 333 171 183 150 154 172 173 180 189 198 212 225 226 234
322 319 326 294 265 226 251 289 285 321 338 23 70 22 48 57 242 224 278 238 242 348 14 37 338 16 56 150 289 4 28 254 62 327 58 210 46 142 306 331 113 33 79 128 235 176 348 339 294 52 329 327 65 145 177 190 282 271 167 140 195 138 167 271 225 238 219 221 285 277 12 235 350 240 311 204 149 146 160 170 184 195 197 202 221 237 253 248
317 302 273 302 327 247 232 266 286 308 60 53 49 80 148 246 221 199 243 300 287 301 203 343 21 26 314 9 307 344 123 286 31 28 20 108 233 152 175 210 349 108 124 116 269 70 215 222 254 245 221 64 100 286 137 99 50 280 166 85 72 247 135 207 209 167 255 332 337 268 199 181 166 253 307 51 94 121 155 184 186 212 226 232 252 240 237 243
319 324 323 273 349 274 290 305 322 44 83 50 74 43 190 202 321 175 265 186 332 46 297 9 69 76 292 305 320 39 321 86 324 77 346 96 197 162 207 209 201 174 150 171 194 165 19 294 271 313 108 136 143 212 272 136 338 270 85 220 225 169 119 70 21 15 64 51 256 173 326 303 295 338 80 88 131 181 194 211 214 219 227 233 235 244 249 250
343 328 358 333 324 316 327 326 342 77 60 88 93 258 209 281 199 171 237 164 250 130 61 49 298 138 281 277 270 336 300 29 318 51 273 316 313 193 208 263 178 210 208 132 290 186 154 243 293 133 241 229 226 218 224 357 148 74 19 244 171 110 120 134 236 343 63 202 262 70 220 277 43 288 175 136 189 209 217 215 215 224 226 227 233 236 238 239
322 307 253 276 257 323 330 332 26 51 79 81 210 228 209 224 210 187 198 105 9 43 99 120 268 100 267 140 307 283 309 63 292 44 268 158 259 184 114 163 221 182 206 262 128 274 118 325 300 273 327 272 345 64 17 340 3 169 198 217 118 267 270 323 87 287 270 263 274 303 275 255 186 237 151 206 201 210 214 212 213 223 221 225 234 243 253 262
270 15 344 267 294 343 329 356 75 78 65 63 236 352 249 232 258 206 212 142 87 118 165 237 176 270 135 168 232 297 298 300 293 96 33 274 106 212 197 169 189 144 54 130 72 173 42 188 295 301 169 307 344 62 246 294 331 23 45 41 337 119 179 131 209 191 120 264 31 289 35 242 205 215 187 200 204 203 200 205 217 213 213 216 222 233 241 246
6 21 306 266 338 352 325 62 58 51 78 182 221 220 218 260 267 267 255 176 258 139 234 171 210 214 218 214 164 259 323 155 155 235 140 266 268 281 233 292 166 65 60 312 126 150 107 98 228 278 300 348 331 144 206 179 270 333 28 328 352 353 221 68 208 156 189 194 194 227 307 278 264 208 182 207 201 199 194 203 204 207 216 215 218 224 235 236
316 106 275 280 352 346 332 45 50 69 171 255 160 244 321 281 338 298 304 184 211 270 173 182 158 188 201 124 281 213 222 156 175 169 196 289 177 300 254 181 178 153 79 40 77 102 91 126 203 307 359 317 246 244 203 165 176 168 162 209 176 155 308 247 267 20 66 153 237 148 258 259 270 265 232 217 213 199 202 195 190 206 212 210 221 234 232 239
17 6 267 311 347 351 36 29 16 237 90 246 306 335 311 343 338 285 326 335 181 241 40 110 183 156 148 198 180 181 144 211 219 165 257 187 256 163 266 154 152 166 124 187 188 239 144 163 99 252 207 230 252 273 233 210 128 170 138 236 169 137 99 106 214 277 2 255 119 148 278 269 248 290 280 255 228 205 189 174 192 201 208 211 226 232 244 240
27 255 278 307 330 352 52 58 289 37 260 237 292 282 266 297 234 286 346 313 301 77 19 213 206 175 251 176 203 175 173 231 163 210 199 198 248 206 230 165 138 75 81 327 35 270 113 82 55 288 308 296 316 313 48 85 102 62 15 66 100 223 174 175 168 181 170 288 303 322 233 254 284 331 319 325 109 139 144 169 182 204 203 217 226 244 277 314
287 286 314 301 359 31 72 62 319 311 303 329 23 287 281 242 317 317 298 304 179 336 201 235 351 200 259 138 127 201 194 244 237 187 301 211 260 234 202 174 176 167 148 225 146 240 120 291 129 330 349 339 340 350 8 342 47 113 171 245 202 86 71 132 102 36 294 218 181 161 257 280 282 333 2 43 76 121 156 202 171 168 219 226 259 304 312 300
292 256 234 300 341 24 66 166 107 358 354 344 327 330 331 334 211 236 224 287 294 231 34 273 219 154 185 164 159 94 214 183 284 251 163 195 235 316 298 164 203 185 203 216 161 148 151 202 114 223 251 281 285 281 265 288 225 240 259 296 267 150 138 105 271 42 197 279 165 187 254 253 277 337 13 17 45 101 244 164 202 177 177 298 317 294 299 289
17 354 309 334 359 13 59 50 81 70 56 5 355 291 303 309 328 325 276 276 220 259 202 265 337 97 50 79 185 216 222 259 180 235 161 254 276 309 244 169 182 194 220 161 151 119 155 111 167 179 185 221 222 218 251 115 57 271 264 163 225 203 175 120 111 135 222 219 205 230 223 273 274 252 253 244 226 195 203 222 212 280 307 268 252 268 268 267
254 69 337 333 336 38 77 47 32 39 12 357 336 336 333 340 284 312 31 327 349 23 303 148 254 137 263 98 250 264 250 296 255 76 216 201 250 236 303 205 279 256 184 150 153 80 79 203 238 201 219 224 213 213 212 171 243 245 248 256 218 202 170 154 174 226 172 329 275 217 221 239 258 250 231 219 226 237 237 231 271 272 256 244 253 271 284 285
41 270 68 36 110 288 354 349 14 344 313 13 273 349 269 332 330 304 322 249 326 330 355 328 36 283 183 197 160 201 191 224 156 224 308 236 324 322 333 42 193 263 196 159 161 145 147 202 261 155 248 238 234 232 225 226 215 226 221 228 239 236 164 195 227 214 156 224 251 263 159 225 251 238 230 211 203 208 199 217 212 217 273 295 308 302 290 282
145 272 239 331 339 299 279 292 325 276 306 336 263 219 275 269 268 236 218 317 338 312 81 278 299 282 307 41 89 254 169 221 292 256 200 230 213 203 267 322 280 294 155 127 163 171 110 240 205 181 240 254 253 237 232 219 249 241 233 228 220 226 238 227 240 224 198 234 247 266 266 254 255 268 231 233 215 167 187 191 20 9 246 245 249 255 265 278
354 10 330 359 248 286 301 315 314 324 292 259 271 239 179 258 283 317 307 216 287 283 341 245 273 308 322 308 170 219 221 202 209 252 246 192 293 148 227 197 179 349 137 186 162 260 159 272 139 155 235 264 247 247 248 226 222 249 242 227 224 230 242 244 246 259 240 265 264 267 280 282 290 217 236 96 112 123 93 134 229 250 276 275 283 296 301 296
327 354 333 318 299 273 249 235 283 352 314 327 219 263 189 249 260 260 263 250 257 263 280 283 308 317 338 346 292 262 246 231 266 249 241 190 249 214 191 271 168 173 179 152 150 228 151 252 52 102 274 277 212 201 235 245 258 251 259 210 232 228 242 244 228 227 209 238 253 279 290 268 304 349 59 67 99 91 152 291 306 291 280 287 282 285 292 301
336 349 355 319 288 266 277 253 267 293 267 216 214 248 234 261 237 344 324 277 271 198 71 15 331 2 298 344 296 262 278 280 269 266 266 262 261 272 234 245 175 179 191 194 148 141 177 151 169 143 228 258 271 194 161 34 345 287 246 202 219 219 218 236 242 231 218 215 231 233 239 235 188 205 117 84 62 344 289 253 256 264 254 256 277 287 289 282